Regional Weather Roundup
Issued by NWS

Home | Current Version | Previous Version | Text Only | Print | Product List | Glossary On
Versions: 1 2 3 4 5 6 7 8 9 10 11 12 13 14 15 16 17 18 19 20 21 22 23 24 25 26 27 28 29 30 31 32 33 34 35 36 37 38 39 40 41 42 43 44 45 46 47 48 49 50
000
ASUS42 KTBW 272310
RWRFL
FLORIDA REGIONAL WEATHER ROUNDUP
NATIONAL WEATHER SERVICE TAMPA BAY RUSKIN FL
600 PM EST THU NOV 27 2014

NOTE: "FAIR" INDICATES FEW OR NO CLOUDS BELOW 12,000 FEET WITH NO
SIGNIFICANT WEATHER AND/OR OBSTRUCTIONS TO VISIBILITY.


FLZ001>010-012>015-112-114-115-280000-
PANHANDLE FLORIDA

CITY           SKY/WX    TMP DP  RH WIND       PRES   REMARKS
PENSACOLA      CLEAR     52  29  41 N9        30.37R
PENSACOLA NAS    N/A     53  31  42 N10       30.37R
MILTON NAS     CLEAR     50  31  48 NW6       30.38R
CRESTVIEW      CLEAR     51  31  46 N7        30.37R
DUKE FIELD     FAIR      52  29  42 N9        30.35R
VALPARAISO     CLEAR     53  30  42 N8        30.35R
MARY ESTHER    CLEAR     52  27  37 N10       30.35R
TRI COUNTY     FAIR      50  33  52 NW6       30.35R
PANAMA CITY    FAIR      51  36  56 NW6       30.32R
TYNDALL AFB    CLEAR     55  36  50 N9        30.33R
APALACHICOLA   CLEAR     57  33  40 N9        30.30R

STATION/POSITION SKY/WX   TEMP    WIND        PRES    WAVE   SWELL
                          AIR SEA DIR/SP/G            HT/PER HT/PER
                          (F)     (DEG/KT/KT) (MB)    (FT/S) (FT/S)
30.1N   87.6W              58 64  340/ 17/ 21 1027.6R   2/ 3
29.2N   88.2W              59 71  360/ 17/ 21 1028.6R   4/ 5
28.7N   86.0W              62 75  360/ 19/ 25 1026.0R   6/ 7
PANAMA CITY BEAC           54 63  340/  7/  9 1026.9R
CAPE SAN BLAS    NOT AVBL
TOWER C                    58     340/ 19/ 20 1025.2R
28.5N   84.5W              60 70  340/ 16/ 19 1024.9R   6/ 8   2/13

$$
FLZ011-016>038-118-127-128-134-139-239-280000-
NORTH FLORIDA

CITY           SKY/WX    TMP DP  RH WIND       PRES   REMARKS
MARIANNA       CLEAR     52  34  50 N8        30.33R
TALLAHASSEE    CLEAR     55  31  39 NW3       30.30R
PERRY          CLEAR     52  34  49 NW5       30.29R
CROSS CITY       N/A     53  34  48 N7        30.26R
LAKE CITY      FAIR      50  36  57 NW7       30.26R
GAINESVILLE    CLEAR     53  32  44 NW8       30.25R
MAYPORT NAS    CLEAR     54  35  48 VRB6      30.24R
JACKSONVILLE   CLEAR     51  34  52 NW7       30.24R
JAX NAS        CLEAR     58  33  39 NW12      30.25R
JAX CRAIG      CLEAR     53  35  50 NW8       30.24R
JAX CECIL      CLEAR     54  32  43 NW8       30.25R
FERNANDINA BEA FAIR      55  36  47 NW8       30.23R
ST AUGUSTINE   CLEAR     53  36  52 NW9       30.24R

STATION/POSITION SKY/WX   TEMP    WIND        PRES    WAVE   SWELL
                          AIR SEA DIR/SP/G            HT/PER HT/PER
                          (F)     (DEG/KT/KT) (MB)    (FT/S) (FT/S)
SHELL POINT                58     330/  9/ 17   N/A
KEATON BEACH               55     340/  5/  8 1025.6R
CEDAR KEY                  58     320/  9/ 13 1024.4R
FERNANDINA                 53 61  330/  7/ 10 1023.5R
30.7N   81.3W                 62                N/A     3/ 3
MAYPORT                    54 63  320/  8/ 13   N/A
31.4N   80.9W              55 63  320/ 19/ 23 1023.3R   4/ 4
ST AUGUSTINE               54     320/  9/ 12 1024.3R

$$
FLZ040-043>046-052-053-057-058-063-144-280000-
INTERIOR CENTRAL FLORIDA

CITY           SKY/WX    TMP DP  RH WIND       PRES   REMARKS
OCALA          CLEAR     64  32  29 N5        30.24R
THE VILLAGES     N/A     57  34  41 NW5       30.14R HAZE
LEESBURG       CLEAR     59  36  42 NW9       30.23R
SANFORD        CLEAR     59  38  45 NW8       30.21R
ORLANDO EXEC   CLEAR     63  35  35 NW7       30.21R
ORLANDO INTL   CLEAR     61  39  44 NW10      30.21R
KISSIMMEE      CLEAR     63  39  42 N7        30.21R
WINTER HAVEN   CLEAR    N/A N/A N/A NW8       30.22R
LAKELAND       CLEAR     57  34  41 NW7       30.22R
BARTOW         FAIR      61  30  31 W12       30.22
OKEECHOBEE     CLEAR     61  52  72 NW5       30.19R

$$
FLZ041-047-054-059-064-141-147-280000-
EAST CENTRAL FLORIDA

CITY           SKY/WX    TMP DP  RH WIND       PRES   REMARKS
ORMOND BEACH   CLEAR     54  37  54 NW5       30.22R
DAYTONA BEACH  CLEAR     58  38  47 NW7       30.22R
DELAND         CLEAR    N/A N/A N/A NW5       30.23R
NEW SMYRNA BEA CLEAR     57  37  47 NW8       30.21R
JFK SPACE CTR  CLEAR     58  46  65 N7        30.20R
TITUSVILLE     CLEAR     61  43  51 NW12      30.20R
CAPE CANAVERAL CLEAR     59  48  67 N6        30.18R
PATRICK AFB    CLEAR     65  43  45 NW13      30.18R
MELBOURNE      CLEAR     61  43  51 NW7       30.18R
VERO BEACH     CLEAR     60  51  72 NW3       30.17S
FT PIERCE      CLEAR     61  52  72 CALM      30.17R

STATION/POSITION SKY/WX   TEMP    WIND        PRES    WAVE   SWELL
                          AIR SEA DIR/SP/G            HT/PER HT/PER
                          (F)     (DEG/KT/KT) (MB)    (FT/S) (FT/S)
28.5N   80.2W              65 75  330/ 17/ 23 1021.7R
28.9N   78.5W              66 78  310/ 21/ 25 1020.8R   9/ 7   2/14
TRIDENT PIER               58 69   10/  4/  4 1021.7R
28.4N   80.5W                 69                N/A     2/ 9
27.6N   80.2W                 76                N/A     3/ 9

$$
FLZ050-056-061-142-242-148-248-149-249-151-251-155-255-
160-260-280000-
WEST CENTRAL FLORIDA

CITY           SKY/WX    TMP DP  RH WIND       PRES   REMARKS
CRYSTAL RIVER  FAIR      55  43  62 NW3       30.24R
INVERNESS      FAIR      54  45  71 CALM      30.24R
BROOKSVILLE    CLEAR     55  44  66 NW8       30.25R
ZEPHYRHILLS    FAIR      55  41  58 NW8       30.23S
CLEARWATER     CLEAR     57  44  62 NW16G26   30.23R
TAMPA INTL     CLEAR     57  39  51 NW10      30.23R
TAMPA EXEC     CLEAR     59  37  44 NW5       30.24R
PLANT CITY     CLEAR     59  32  36 NW9       30.24R
MACDILL AFB    CLEAR     58  41  54 N13G22    30.23R
PETER O KNIGHT CLEAR     59  41  51 NW7       30.23R
ST PETERSBURG  CLEAR     59  42  53 N13G20    30.22R
SARASOTA       CLEAR     58  42  55 N9        30.22R
VENICE         FAIR      63  41  45 NW10      30.24R

STATION/POSITION SKY/WX   TEMP    WIND        PRES    WAVE   SWELL
                          AIR SEA DIR/SP/G            HT/PER HT/PER
                          (F)     (DEG/KT/KT) (MB)    (FT/S) (FT/S)
CEDAR KEY                  58     320/  9/ 13 1024.4R
28.5N   84.5W              60 70  340/ 16/ 19 1024.9R   6/ 8   2/13
27.3N   84.3W                 78                N/A     7/ 8
CLEARWATER BEACH           60 65  330/ 20/ 22 1023.5S
MIDDLE TAMPA BAY           60     350/ 17/ 21 1023.8R
VENICE                     62 68  340/ 14/ 17 1023.3R

$$
FLZ066-069-070-075>078-162-262-165-265-280000-
SOUTHWEST FLORIDA AND KEYS

CITY           SKY/WX    TMP DP  RH WIND       PRES   REMARKS
PUNTA GORDA    CLEAR     64  46  52 N14       30.23R
FT MYERS       CLEAR     66  49  54 NW12      30.20R
SOUTHWEST INTL CLEAR     66  51  58 N7        30.20R
NAPLES         CLEAR     67  56  67 NW14G20   30.19R
MARCO ISLAND   CLEAR     66  55  68 NW8       30.18S
MARATHON       CLEAR     68  51  54 N7        30.18R
KEY WEST NAS   CLEAR     67  32  27 N15       30.19R
KEY WEST INTL  CLEAR     69  57  65 N13       30.19R

STATION/POSITION SKY/WX   TEMP    WIND        PRES    WAVE   SWELL
                          AIR SEA DIR/SP/G            HT/PER HT/PER
                          (F)     (DEG/KT/KT) (MB)    (FT/S) (FT/S)
VENICE                     62 68  340/ 14/ 17 1023.3R
NAPLES                     67 75  330/ 18/ 21 1022.6S
26.0N   85.6W              71 80  350/ 17/ 23 1023.8R   5/ 6   2/ 8
DRY TORTUGAS               71      10/ 18/ 21 1022.2R
NW FL BAY                  70     350/ 12/ 14 1021.4R
SAND KEY                   69     360/ 20/ 24 1022.1R
SOMBRERO KEY               69     360/ 13/ 14 1022.4R
LONG KEY                   70 72   20/ 12/ 13 1022.3R
MOLASSES REEF              70 75  360/ 12/ 14 1021.0R

$$
FLZ067-068-071>074-168-172>174-280000-
SOUTHEAST FLORIDA

CITY           SKY/WX    TMP DP  RH WIND       PRES   REMARKS
W PALM BEACH   PTCLDY    66  49  54 NW7       30.16R
FT LAUDER-EXEC CLEAR     67  48  50 NW3       30.17R
FT LAUDERDALE  PTCLDY    67  48  50 NW8       30.17R
POMPANO BEACH  CLEAR     67  48  50 NW7       30.17R
PEMBROKE PINES CLEAR     67  48  50 N8        30.18R
OPA LOCKA      CLEAR     67  47  48 N7        30.18R
MIAMI          PTCLDY    69  45  41 N6        30.17R
WEST KENDALL   CLEAR     65  47  52 N6        30.17R
HOMESTEAD      CLEAR     66  47  49 N5        30.17R

STATION/POSITION SKY/WX   TEMP    WIND        PRES    WAVE   SWELL
                          AIR SEA DIR/SP/G            HT/PER HT/PER
                          (F)     (DEG/KT/KT) (MB)    (FT/S) (FT/S)
PORT EVERGLADES            69     320/  7/ 10 1021.4
VIRGINIA KEY               70 74  340/  7/ 12 1021.9R
LAKE WORTH                 69 76  320/  6/  9 1021.3R
FOWEY ROCKS                71 77  350/  8/ 11 1021.3R


USA.gov is the U.S. government's official web portal to all federal, state and local government web resources and services.